This demonstration page uses our WeatherBlox Daily Observations layout. Learn more.

Left ArrowRight Arrow

Hourly Observations for August 21, 2019

Temp ( °F °C ) Dew Point ( °F °C ) Humidity (%) Winds ( mph kmh ) Pressure ( in mb ) Visibility ( mi km ) Precip ( " mm )
12:41 am 00:41 Cloudy with Light Showers 84 29 77 25 79 79 NE 13 20 29.96 1014 6 10 0.00 0.00
12:48 am 00:48 Cloudy 84 29 77 25 79 79 NNE 7 11 29.97 1015 10 16 0.00 0.00
12:56 am 00:56 Cloudy 82 28 77 25 84 84 NE 7 11 29.96 1015 10 16 0.00 0.00
1:56 am 01:56 Cloudy 82 28 75 24 79 79 NNE 7 11 29.92 1013 N/A 0.00 0.00
2:56 am 02:56 Mostly Cloudy 81 27 75 24 84 84 ENE 9 15 29.89 1012 10 16 0.00 0.00
3:56 am 03:56 Cloudy 79 26 73 23 84 84 NNE 6 9 29.93 1014 10 16 0.00 0.00
4:07 am 04:07 Cloudy with Light Showers 79 26 73 23 84 84 NNE 6 9 29.94 1014 6 10 0.00 0.00
4:56 am 04:56 Mostly Cloudy with Light Showers 77 25 75 24 94 94 N 3 6 29.96 1015 5 8 0.00 0.00
5:12 am 05:12 Mostly Cloudy with Thunderstorms 77 25 75 24 94 94 SW 3 6 29.98 1015 5 8 0.00 0.00
5:56 am 05:56 Cloudy with Thunderstorms 77 25 75 24 94 94 N 3 6 30.00 1016 5 8 0.00 0.00
6:27 am 06:27 Cloudy with Thunderstorms 72 22 72 22 100 100 NNW 12 19 30.04 1017 2 3 0.00 0.00
6:56 am 06:56 Cloudy with Thunderstorms 72 22 70 21 94 94 N 6 9 30.04 1017 5 8 0.00 0.00
7:34 am 07:34 Cloudy 72 22 70 21 94 94 E 8 13 30.04 1017 7 11 0.00 0.00
7:56 am 07:56 Cloudy with Light Showers 72 22 70 21 94 94 E 6 9 30.05 1018 7 11 0.00 0.00
8:56 am 08:56 Cloudy with Light Showers 72 22 70 21 94 94 NE 7 11 30.01 1016 7 11 0.02 0.51
9:37 am 09:37 Cloudy with Light Showers 72 22 70 21 94 94 NW 15 24 30.04 1017 7 11 0.00 0.00
9:44 am 09:44 Cloudy with Light Showers 72 22 70 21 94 94 NW 13 20 30.04 1017 7 11 0.00 0.00
9:56 am 09:56 Cloudy with Light Showers 72 22 70 21 94 94 NNW 10 17 30.04 1017 7 11 0.26 6.60
10:56 am 10:56 Cloudy 73 23 70 21 89 89 NNW 9 15 30.05 1018 7 11 0.00 0.00
11:56 am 11:56 Partly Cloudy with Light Rain 73 23 70 21 89 89 N 13 20 30.03 1017 7 11 0.00 0.00
2:00 pm 14:00 Cloudy with Light Rain 72 22 70 21 94 94 E 5 7 30.07 1018 7 11 0.04 1.02
2:56 pm 14:56 Cloudy with Light Rain 72 22 68 20 88 88 NNE 6 9 30.06 1018 7 11 0.00 0.00
3:56 pm 15:56 Cloudy with Light Rain 72 22 66 19 83 83 NNE 13 20 30.06 1018 10 16 0.00 0.00
4:26 pm 16:26 Cloudy 72 22 64 18 78 78 NNE 7 11 30.05 1018 10 16 0.00 0.00
4:56 pm 16:56 Cloudy 72 22 64 18 78 78 NNE 7 11 30.05 1018 10 16 0.00 0.00
5:56 pm 17:56 Cloudy 72 22 63 17 73 73 N 5 7 30.03 1017 10 16 0.00 0.00
6:56 pm 18:56 Cloudy 72 22 61 16 69 69 VRB 3 6 30.02 1017 10 16 0.00 0.00
7:56 pm 19:56 Mostly Cloudy 72 22 63 17 73 73 VRB 3 6 30.02 1017 10 16 0.00 0.00
8:56 pm 20:56 Mostly Cloudy 72 22 63 17 73 73 VRB 6 9 30.04 1017 10 16 0.00 0.00
9:56 pm 21:56 Partly Cloudy 70 21 63 17 78 78 VRB 5 7 30.05 1018 10 16 0.00 0.00
10:56 pm 22:56 Mostly Clear 70 21 66 19 88 88 NNE 5 7 30.07 1018 10 16 0.00 0.00
11:56 pm 23:56 Mostly Clear 68 20 66 19 94 94 NE 3 6 30.07 1018 10 16 0.00 0.00

Powered by AerisWeather